Location: Shenandoah County Park
(38.9356°N, 78.4524°W)
Time: 02:06:36
(UTC-05:00)

Envisat - Pass Details

Date: 06 December 2021
Orbit: 764 x 766 km, 98.2° (Epoch: 23 January)

Event Time Altitude Azimuth Distance (km) Brightness Sun altitude
Rises 05:59:11 0° 2° (N) 3,240 6.1 -15.0°
Reaches altitude 10° 06:01:40 10° 354° (N) 2,309 5.2 -14.5°
Maximum altitude 06:06:12 34° 291° (WNW) 1,252 3.6 -13.7°
Drops below altitude 10° 06:10:43 10° 227° (SW) 2,295 5.2 -12.9°
Sets 06:13:11 0° 219° (SW) 3,216 6.0 -12.4°
